Location: Marion Hill
(40.7303°N, 80.2959°W)
Time: 08:51:42
(UTC+00:00)

Cosmos 1553 Rocket - Pass Details

Date: 29 October 2020
Orbit: 940 x 1009 km, 82.9° (Epoch: 26 November)

Event Time Altitude Azimuth Distance (km) Brightness Sun altitude
Rises 22:53:17 0° 168° (SSE) 3,713 7.1 -6.8°
Reaches altitude 10° 22:55:54 10° 163° (SSE) 2,761 6.3 -7.3°
Maximum altitude 23:01:56 48° 90° (E) 1,273 4.2 -8.4°
Drops below altitude 10° 23:07:54 10° 19° (NNE) 2,736 6.1 -9.6°
Sets 23:10:29 0° 14° (NNE) 3,677 6.8 -10.0°
